Change the Weather History Date:

Friday, November 4, 2011

  Actual Average Record
Temperature  
Mean Temperature 63 °F -  
Max Temperature 71 °F 80 °F 89 °F (1972)
Min Temperature 51 °F 60 °F 37 °F (1966)
Degree Days  
Heating Degree Days 2    
Growing Degree Days 13 (Base 50)    
Moisture  
Dew Point 55 °F    
Average Humidity 79    
Maximum Humidity 100    
Minimum Humidity 46    
Precipitation  
Precipitation 0.00 in - - ()
Sea Level Pressure  
Sea Level Pressure 29.94 in    
Wind  
Wind Speed 4 mph (WNW)    
Max Wind Speed 17 mph    
Max Gust Speed 23 mph    
Visibility 12 miles    
Events      
Averages and records for this station are not official NWS values.
T = Trace of Precipitation, MM = Missing Value Source: NWS Daily Summary

Daily Weather History Graph

Daily Weather History Graph

Search for Another Location

Airport or City:

Trip Planner

Search our weather history database for the weather conditions in past years. The results will help you decide how hot, cold, wet, or windy it might be!

Date:

Astronomy

Nov. 04, 2011 Rise Set
Actual Time 7:40 AM EDT 6:40 PM EDT
Civil Twilight 7:15 AM EDT 7:05 PM EDT
Nautical Twilight 6:48 AM EDT 7:32 PM EDT
Astronomical Twilight 6:20 AM EDT 8:00 PM EDT
Moon 3:06 PM EDT (11/4) 2:19 AM EDT (11/4)
Length of Visible Light 11h 49m
Length of Day
11h 00m
Waxing Gibbous, 69% of the Moon is Illuminated
Nov 4
Waxing Gibbous
Nov 10
Full
Nov 18
Last Quarter
Nov 25
New
Dec 2
First Quarter

Hourly Weather History & Observations

Time (EDT) Temp. Dew Point Humidity Pressure Visibility Wind Dir Wind Speed Gust Speed Precip Events Conditions
12:15 AM 60.8 °F 60.8 °F 100% 29.99 in - Calm Calm - N/A   Unknown
12:35 AM 60.8 °F 60.8 °F 100% 29.99 in - Calm Calm - N/A   Unknown
1:15 AM 60.8 °F 60.8 °F 100% 29.98 in - Calm Calm - N/A   Unknown
1:35 AM 60.8 °F 60.8 °F 100% 29.97 in - Calm Calm - N/A   Unknown
2:15 AM 59.0 °F 59.0 °F 100% 29.97 in - Calm Calm - N/A   Unknown
2:35 AM 59.0 °F 59.0 °F 100% 29.96 in - Calm Calm - N/A   Unknown
2:55 AM 57.2 °F 57.2 °F 100% 29.95 in - Calm Calm - N/A   Unknown
3:15 AM 59.0 °F 59.0 °F 100% 29.94 in - Calm Calm - N/A   Unknown
3:35 AM 57.2 °F 57.2 °F 100% 29.93 in - Calm Calm - N/A   Unknown
3:55 AM 59.0 °F 59.0 °F 100% 29.92 in - Calm Calm - N/A   Unknown
4:15 AM 57.2 °F 57.2 °F 100% 29.92 in - Calm Calm - N/A   Unknown
4:35 AM 59.0 °F 59.0 °F 100% 29.92 in - Calm Calm - N/A   Unknown
4:55 AM 57.2 °F 57.2 °F 100% 29.91 in - Calm Calm - N/A   Unknown
5:15 AM 57.2 °F 57.2 °F 100% 29.91 in - Calm Calm - N/A   Unknown
5:35 AM 57.2 °F 57.2 °F 100% 29.91 in - Calm Calm - N/A   Unknown
6:15 AM 59.0 °F 59.0 °F 100% 29.90 in - Calm Calm - N/A   Unknown
6:35 AM 59.0 °F 59.0 °F 100% 29.90 in - North - - N/A   Unknown
6:55 AM 60.8 °F 60.8 °F 100% 29.90 in - South 4.6 mph - N/A   Mostly Cloudy
7:54 AM 60.8 °F 59.0 °F 94% 29.91 in 10.0 mi South 4.6 mph - N/A   Overcast
8:53 AM 64.4 °F 60.8 °F 88% 29.93 in 10.0 mi SW 4.6 mph - N/A   Overcast
9:23 AM 64.4 °F 60.8 °F 88% 29.93 in 10.0 mi SW 9.2 mph - N/A   Overcast
9:51 AM 66.2 °F 66.2 °F 100% 29.94 in 10.0 mi West 9.2 mph - N/A   Overcast
10:50 AM 69.8 °F 59.0 °F 68% 29.94 in 10.0 mi West 13.8 mph - N/A   Mostly Cloudy
11:54 AM 71.6 °F 53.6 °F 53% 29.93 in 12.0 mi West 13.8 mph 20.7 mph N/A   Scattered Clouds
12:50 PM 71.6 °F 53.6 °F 53% 29.92 in 15.0 mi WNW 11.5 mph 17.3 mph N/A   Partly Cloudy
1:52 PM 71.6 °F 50.0 °F 46% 29.89 in 15.0 mi WNW 11.5 mph 17.3 mph N/A   Partly Cloudy
2:55 PM 71.6 °F 50.0 °F 46% 29.88 in 15.0 mi WNW 13.8 mph 23.0 mph N/A   Partly Cloudy
3:15 PM 69.8 °F 48.2 °F 46% 29.89 in - WNW 15.0 mph 20.7 mph N/A   Clear
3:35 PM 69.8 °F 48.2 °F 46% 29.89 in - WNW 17.3 mph - N/A   Clear
3:55 PM 68.0 °F 48.2 °F 49% 29.89 in - West 11.5 mph - N/A   Clear
4:15 PM 68.0 °F 48.2 °F 49% 29.89 in - WNW 13.8 mph 20.7 mph N/A   Clear
4:35 PM 68.0 °F 46.4 °F 46% 29.89 in - WNW 15.0 mph 20.7 mph N/A   Clear
4:55 PM 68.0 °F 46.4 °F 46% 29.89 in - West 12.7 mph 17.3 mph N/A   Clear
5:15 PM 66.2 °F 46.4 °F 49% 29.89 in - WNW 10.4 mph - N/A   Clear
5:35 PM 66.2 °F 46.4 °F 49% 29.89 in - WNW 11.5 mph - N/A   Clear
5:55 PM 66.2 °F 46.4 °F 49% 29.90 in - WNW 11.5 mph - N/A   Clear
6:15 PM - - N/A% 29.90 in - WNW 8.1 mph - N/A   Unknown
6:35 PM - - N/A% 29.90 in - WNW 8.1 mph - N/A   Unknown
6:55 PM - - N/A% 29.91 in - NW 8.1 mph - N/A   Unknown
7:15 PM - - N/A% 29.93 in - NNW 8.1 mph - N/A   Unknown
7:35 PM 59.0 °F 48.2 °F 67% 29.93 in - WNW 11.5 mph - N/A   Clear
7:55 PM - - N/A% 29.94 in - NW 8.1 mph - N/A   Unknown
8:35 PM - - N/A% 29.96 in - NW 6.9 mph - N/A   Unknown
8:55 PM - - N/A% 29.97 in - NW 6.9 mph - N/A   Unknown
9:15 PM - - N/A% 29.97 in - NW 8.1 mph - N/A   Unknown
9:35 PM - - N/A% 29.99 in - NW 8.1 mph - N/A   Unknown
9:55 PM - - N/A% 30.00 in - NNW 8.1 mph - N/A   Unknown
10:15 PM 55.4 °F 48.2 °F 77% 30.00 in - NNW 9.2 mph - N/A   Clear
10:35 PM - - N/A% 30.00 in - NNW 8.1 mph - N/A   Unknown
10:55 PM - - N/A% 30.00 in - NNW 3.5 mph - N/A   Unknown
11:15 PM - - N/A% 30.00 in - Calm Calm - N/A   Unknown
11:35 PM - - N/A% 30.00 in - Calm Calm - N/A   Unknown
11:55 PM 51.8 °F 48.2 °F 88% 30.01 in - Calm Calm - N/A   Unknown